Voltar ao catálogo

SL-16 DEB

AtivoLEO
NORAD 39302·DEBRIS·🇷🇺 Russia

Lançado Dec 25, 1992 de Baikonur Cosmodrome

Loading…

Próximas Passagens (próximas 24 horas)

TLE

EnvelhecendoSource: Space-Track

Época: Sep 11, 2026, 12:30 UTC

1 39302U 92093JT  26254.52135863  .00003007  00000-0  10480-2 0  9997
2 39302  70.9815 163.2217 0109168 176.1340 359.2465 14.32838301670648

Acompanhe SL-16 DEB em tempo real com AllMySat

Download on the App Store